Springfield, CO

6:20 PM MDT on March 30, 2017 (GMT -0600)
Springfield

Weather History for KSPD - March, 2012

Change the Weather History Date:

Friday, March 16, 2012

  Actual Average Record
Temperature  
Mean Temperature 59 °F -  
Max Temperature 83 °F 58 °F 83 °F (2011)
Min Temperature 35 °F 28 °F 16 °F (2002)
Degree Days  
Heating Degree Days 6 22  
Month to date heating degree days 290 388  
Since 1 July heating degree days 4241 4394  
Cooling Degree Days 0 0  
Month to date cooling degree days 0 0  
Year to date cooling degree days 0 0  
Growing Degree Days 9 (Base 50)    
Moisture  
Dew Point 10 °F    
Average Humidity 28    
Maximum Humidity 52    
Minimum Humidity 4    
Precipitation  
Precipitation 0.00 in 0.04 in 0.29 in (2008)
Month to date precipitation 0.14 0.51  
Year to date precipitation 0.41 1.32  
Sea Level Pressure  
Sea Level Pressure 29.75 in    
Wind  
Wind Speed 12 mph (WSW)    
Max Wind Speed 29 mph    
Max Gust Speed 37 mph    
T = Trace of Precipitation, MM = Missing Value Source: NWS Daily Summary

Daily Weather History Graph

Daily Weather History Graph

Search for Another Location

Airport or City:

Trip Planner

Search our weather history database for the weather conditions in past years. The results will help you decide how hot, cold, wet, or windy it might be!

Date:

Astronomy

Mar. 16, 2012 Rise Set
Actual Time 6:59 AM MDT 6:59 PM MDT
Civil Twilight 6:33 AM MDT 7:25 PM MDT
Nautical Twilight 6:02 AM MDT 7:55 PM MDT
Astronomical Twilight 5:32 AM MDT 8:26 PM MDT
Moon 3:12 AM MDT (3/16) 1:28 PM MDT (3/16)
Length of Visible Light 12h 51m
Length of Day
12h 00m
Waning Crescent, 32% of the Moon is Illuminated
Mar 16
Waning Crescent
Mar 22
New
Mar 30
First Quarter
Apr 6
Full
Apr 13
Last Quarter

Hourly Weather History & Observations

Time (MDT) Temp. Windchill Dew Point Humidity Pressure Visibility Wind Dir Wind Speed Gust Speed Precip Events Conditions
12:56 AM 44.1 °F 40.1 °F 19.0 °F 37% 29.89 in - WSW 6.9 mph - N/A   Unknown
1:56 AM 43.0 °F 38.2 °F 19.9 °F 40% 29.88 in - West 8.1 mph - N/A   Unknown
2:56 AM 37.0 °F 34.5 °F 19.0 °F 48% 29.86 in - WNW 3.5 mph - N/A   Unknown
3:56 AM 36.0 °F 32.1 °F 19.9 °F 52% 29.84 in - WNW 4.6 mph - N/A   Unknown
4:56 AM 36.0 °F 32.1 °F 18.0 °F 48% 29.84 in - NW 4.6 mph - N/A   Unknown
5:56 AM 36.0 °F 32.1 °F 17.1 °F 46% 29.83 in - WNW 4.6 mph - N/A   Unknown
6:56 AM 50.0 °F - 12.9 °F 23% 29.83 in - West 11.5 mph - N/A   Unknown
7:56 AM 50.0 °F - 15.1 °F 25% 29.86 in - Variable 6.9 mph - N/A   Unknown
8:56 AM 64.9 °F - 18.0 °F 16% 29.81 in - WNW 3.5 mph - N/A   Unknown
9:56 AM 75.9 °F - 9.0 °F 8% 29.78 in - West 9.2 mph 16.1 mph N/A   Unknown
10:56 AM 77.0 °F - 7.0 °F 7% 29.78 in - West 8.1 mph 16.1 mph N/A   Unknown
11:56 AM 80.1 °F - 5.0 °F 6% 29.75 in - SW 11.5 mph 21.9 mph N/A   Unknown
12:56 PM 80.1 °F - 3.9 °F 5% 29.72 in - WSW 13.8 mph 29.9 mph N/A   Unknown
1:56 PM 82.9 °F - 1.9 °F 4% 29.67 in - SW 23.0 mph 34.5 mph N/A   Unknown
2:56 PM 82.0 °F - 3.0 °F 5% 29.66 in - SW 20.7 mph 27.6 mph N/A   Unknown
3:56 PM 81.0 °F - 1.9 °F 5% 29.66 in - SW 26.5 mph 33.4 mph N/A   Unknown
4:56 PM 80.1 °F - 3.0 °F 5% 29.65 in - SW 17.3 mph 25.3 mph N/A   Unknown
5:56 PM 77.0 °F - 1.9 °F 5% 29.65 in - SSW 23.0 mph 29.9 mph N/A   Unknown
6:56 PM 68.0 °F - 3.9 °F 8% 29.65 in - SSW 13.8 mph - N/A   Unknown
7:56 PM 59.0 °F - 5.0 °F 12% 29.68 in - SSW 12.7 mph - N/A   Unknown
8:56 PM 51.1 °F - 9.0 °F 18% 29.68 in - WSW 6.9 mph - N/A   Unknown
9:56 PM 50.0 °F - 9.0 °F 19% 29.67 in - West 11.5 mph - N/A   Unknown
10:56 PM 48.9 °F - 8.1 °F 19% 29.68 in - West 10.4 mph - N/A   Unknown
11:56 PM 46.9 °F - 9.0 °F 21% 29.67 in - WSW 10.4 mph - N/A   Unknown